Location: Peterborough
(44.3091°N, 78.3197°W)
Time: 18:02:55
(UTC-04:00)

Transit 2A Rocket - Pass Details

Date: 23 March 2023
Orbit: 584 x 914 km, 66.7° (Epoch: 04 June)

Event Time Altitude Azimuth Distance (km) Brightness Sun altitude
Rises 19:20:57 0° 332° (NNW) 3,540 8.9 0.6°
Reaches altitude 10° 19:24:39 10° 354° (N) 2,612 7.9 0.0°
Maximum altitude 19:28:12 16° 30° (NNE) 2,228 7.2 -0.6°
Drops below altitude 10° 19:31:43 10° 66° (ENE) 2,590 7.2 -1.3°
Enters shadow 19:34:44 - 85° (E) 3,317 7.6 -1.8°
Sets 19:35:21 0° 88° (E) 3,495 - -1.9°
